GOES 17 (43226 NORAD) Tracking and Keplerian Element Data

This shows tracking and keplerian element data for the satellite.

Feedback or suggestion? Click here.




ElementValue
Catalog43226
NameGOES 17
Epoch Orbit2302
Epoch Day160.16368855
Epoch Year2024
RAAN149.7789
Inclination0.0491
Eccentricity4.53E-05
Argument of Perigee319.6647
Mean Anonmoly101.8
Mean Motion1.00271804
Decay Rate-9.1E-07
L11 43226U 18022A 24160.16368855 -.00000091 00000+0 00000+0 0 9994
L22 43226 0.0491 149.7789 0000453 319.6647 101.8000 1.00271804 23026



Live tracking and technical data element details for GOES 17 (NORAD 43226). GOES 17 can be tracked NOW for your location showing map with azimuth and elevation plus other details from your city location.







IsCatalogInMostPopularTable: catalog: 43226, numindb: 966
Update: records affected: 1



GetName: 43226 GOES 17

Hit Count: updated at: Tue, 17 Sep 2024 12:10:11 GMT